Location: Powder Track
(41.8531°N, 72.3584°W)
Time: 18:24:02
(UTC+00:00)

Transit 4A - Pass Details

Date: 04 August 2021
Orbit: 871 x 974 km, 66.8° (Epoch: 21 September)

Event Time Altitude Azimuth Distance (km) Brightness Sun altitude
Rises 13:08:30 0° 327° (NNW) 3,480 10.6 35.9°
Reaches altitude 10° 13:10:59 10° 325° (NW) 2,547 9.9 36.3°
Maximum altitude 13:16:49 68° 244° (WSW) 960 8.4 37.4°
Drops below altitude 10° 13:22:46 10° 162° (SSE) 2,592 10.7 38.5°
Sets 13:25:19 0° 160° (SSE) 3,547 11.3 39.0°
